GW1603 Weather Reports


time (UTC)temp
C
wind
direction
speed
KPH
gust
KPH
rain 1hr
cm
rain 24hr
cm
rain mn
cm
humidity
%
barometer
mb
20260504234806 23 259 1.6 8.0 0.00 0.00 0.00 51 1006.3
20260504234304 23 271 1.6 9.7 0.00 0.00 0.00 50 1006.5
20260504233759 24 305 1.6 4.8 0.00 0.00 0.00 48 1006.4
20260504233255 24 225 1.6 17.7 0.00 0.00 0.00 49 1006.7
20260504232752 24 199 3.2 4.8 0.00 0.00 0.00 49 1006.7
20260504232249 24 14 1.6 9.7 0.00 0.00 0.00 48 1006.8
20260504231746 25 10 3.2 9.7 0.00 0.00 0.00 47 1006.7
20260504231243 25 233 3.2 8.0 0.00 0.00 0.00 48 1006.7
20260504230738 25 272 3.2 4.8 0.00 0.00 0.00 47 1006.6
20260504230237 25 182 1.6 4.8 0.00 0.00 0.00 46 1006.8
20260504225736 25 163 4.8 11.3 0.00 0.00 0.00 45 1006.6
20260504225231 25 192 3.2 8.0 0.00 0.00 0.00 46 1006.8
20260504224729 25 208 9.7 16.1 0.00 0.00 0.00 46 1006.7
20260504224226 25 320 0.0 8.0 0.00 0.00 0.00 46 1006.7
20260504223722 25 270 4.8 8.0 0.00 0.00 0.00 44 1006.6
20260504223218 25 215 3.2 9.7 0.00 0.00 0.00 46 1006.8
20260504222715 25 320 8.0 12.9 0.00 0.00 0.00 44 1006.8
20260504222212 25 224 1.6 8.0 0.00 0.00 0.00 46 1006.9
20260504221709 25 200 4.8 8.0 0.00 0.00 0.00 45 1006.9
20260504221206 25 225 4.8 8.0 0.00 0.00 0.00 46 1007.0
20260504220703 25 190 4.8 12.9 0.00 0.00 0.00 45 1006.7
20260504220201 26 254 3.2 8.0 0.00 0.00 0.00 45 1006.9
20260504215656 25 198 3.2 8.0 0.00 0.00 0.00 45 1006.9
20260504215154 25 216 3.2 16.1 0.00 0.00 0.00 45 1006.9
20260504214649 26 178 6.4 9.7 0.00 0.00 0.00 45 1006.7
20260504214146 26 195 4.8 9.7 0.00 0.00 0.00 44 1006.8
20260504213643 26 199 4.8 4.8 0.00 0.00 0.00 44 1006.9
20260504213140 26 340 3.2 12.9 0.00 0.00 0.00 44 1007.0
20260504212636 26 212 3.2 4.8 0.00 0.00 0.00 44 1007.1
20260504212133 26 218 0.0 4.8 0.00 0.00 0.00 46 1007.1
20260504211631 26 224 4.8 11.3 0.00 0.00 0.00 43 1007.2
20260504211126 26 309 1.6 8.0 0.00 0.00 0.00 45 1007.3
20260504210625 26 174 3.2 8.0 0.00 0.00 0.00 45 1007.1
20260504210120 26 217 4.8 16.1 0.00 0.00 0.00 42 1007.1
20260504205618 26 208 1.6 4.8 0.00 0.00 0.00 46 1007.2
20260504205116 26 278 3.2 8.0 0.00 0.00 0.00 44 1007.3
20260504204614 26 204 6.4 11.3 0.00 0.00 0.00 43 1007.2
20260504204113 26 339 1.6 11.3 0.00 0.00 0.00 43 1007.3
20260504203611 26 215 6.4 11.3 0.00 0.00 0.00 41 1007.6
20260504203108 27 191 6.4 9.7 0.00 0.00 0.00 42 1007.3
20260504202603 26 306 0.0 8.0 0.00 0.00 0.00 44 1007.3
20260504202100 26 204 4.8 14.5 0.00 0.00 0.00 44 1007.6
20260504201556 26 91 4.8 14.5 0.00 0.00 0.00 43 1007.4
20260504201055 26 249 1.6 8.0 0.00 0.00 0.00 44 1007.6
20260504200550 26 341 1.6 9.7 0.00 0.00 0.00 45 1007.8
20260504200048 26 331 1.6 12.9 0.00 0.00 0.00 42 1007.8
20260504195544 26 256 0.0 8.0 0.00 0.00 0.00 43 1007.8
20260504195040 26 93 6.4 16.1 0.00 0.00 0.00 40 1007.8
20260504194537 26 112 4.8 9.7 0.00 0.00 0.00 42 1008.0
20260504194032 27 292 8.0 17.7 0.00 0.00 0.00 44 1008.1
20260504193529 26 255 1.6 9.7 0.00 0.00 0.00 42 1008.2
20260504193028 26 105 4.8 25.7 0.00 0.00 0.00 40 1008.0
20260504192526 26 320 6.4 12.9 0.00 0.00 0.00 43 1008.0
20260504192024 26 252 6.4 12.9 0.00 0.00 0.00 42 1008.1
20260504191521 26 73 1.6 4.8 0.00 0.00 0.00 44 1008.2
20260504191017 26 265 4.8 9.7 0.00 0.00 0.00 42 1008.2
20260504190514 26 185 4.8 16.1 0.00 0.00 0.00 42 1008.5
20260504190010 26 158 6.4 12.9 0.00 0.00 0.00 42 1008.4
20260504185507 26 176 4.8 11.3 0.00 0.00 0.00 41 1008.4
20260504185003 26 299 1.6 9.7 0.00 0.00 0.00 44 1008.6
20260504184459 26 211 4.8 12.9 0.00 0.00 0.00 42 1008.5
20260504183954 26 201 8.0 17.7 0.00 0.00 0.00 40 1008.7
20260504183452 26 71 9.7 14.5 0.00 0.00 0.00 44 1008.7
20260504182950 26 279 4.8 11.3 0.00 0.00 0.00 43 1008.6
20260504182446 26 208 3.2 11.3 0.00 0.00 0.00 42 1008.7
20260504181944 26 110 8.0 12.9 0.00 0.00 0.00 41 1008.6
20260504181441 26 99 3.2 4.8 0.00 0.00 0.00 44 1008.8
20260504180939 26 183 4.8 12.9 0.00 0.00 0.00 43 1008.9
20260504180438 26 246 8.0 14.5 0.00 0.00 0.00 40 1008.8
20260504175936 26 224 3.2 14.5 0.00 0.00 0.00 42 1008.9
20260504175432 26 232 8.0 14.5 0.00 0.00 0.00 40 1009.0
20260504174930 25 319 0.0 3.2 0.00 0.00 0.00 46 1008.9
20260504174428 25 126 1.6 11.3 0.00 0.00 0.00 43 1009.2
20260504173925 25 300 1.6 9.7 0.00 0.00 0.00 45 1009.0
20260504173421 25 258 4.8 14.5 0.00 0.00 0.00 43 1009.2
20260504172919 25 329 6.4 11.3 0.00 0.00 0.00 45 1009.2
20260504172414 25 172 3.2 9.7 0.00 0.00 0.00 43 1009.1
20260504171911 25 14 1.6 14.5 0.00 0.00 0.00 45 1009.2
20260504171408 25 266 4.8 9.7 0.00 0.00 0.00 44 1009.3
20260504170905 24 282 1.6 16.1 0.00 0.00 0.00 46 1009.3
20260504170402 25 268 4.8 14.5 0.00 0.00 0.00 47 1009.1
20260504160320 23 276 3.2 4.8 0.00 0.00 0.00 55 1009.9
20260504150745 22 231 1.6 11.3 0.00 0.00 0.00 55 1010.2
20260504150242 21 232 3.2 14.5 0.00 0.00 0.00 53 1010.1
20260504141211 20 213 3.2 17.7 0.00 0.00 0.00 62 1010.8
20260504140708 20 59 3.2 8.0 0.00 0.00 0.00 64 1010.6
20260504140203 19 78 1.6 14.5 0.00 0.00 0.00 63 1010.9
20260504130632 17 244 1.6 3.2 0.00 0.00 0.00 75 1011.0
20260504130129 17 277 1.6 9.7 0.00 0.00 0.00 74 1010.9
20260504110520 13 204 3.2 3.2 0.00 0.00 0.00 85 1010.1
20260504100437 12 217 1.6 1.6 0.00 0.00 0.00 88 1010.4
20260504081830 15 243 1.6 4.8 0.00 0.00 0.00 81 1010.5
20260504081326 14 247 0.0 4.8 0.00 0.00 0.00 79 1010.6
20260504080822 15 219 3.2 4.8 0.00 0.00 0.00 80 1010.5
20260504080320 15 219 1.6 3.2 0.00 0.00 0.00 79 1010.6
20260504070247 15 233 3.2 4.8 0.00 0.00 0.00 77 1010.9
20260504060207 16 232 1.6 3.2 0.00 0.00 0.00 74 1011.9
20260504050635 15 221 1.6 3.2 0.00 0.00 0.00 75 1012.7
20260504050132 15 232 1.6 3.2 0.00 0.00 0.00 75 1012.7
20260504045629 15 209 1.6 3.2 0.00 0.00 0.00 76 1012.8
20260504045124 15 242 1.6 4.8 0.00 0.00 0.00 77 1012.8
20260504044622 15 198 3.2 3.2 0.00 0.00 0.00 76 1012.7
20260504044118 15 253 1.6 3.2 0.00 0.00 0.00 76 1012.8
20260504043615 15 226 1.6 3.2 0.00 0.00 0.00 76 1012.9
20260504043113 15 250 1.6 3.2 0.00 0.00 0.00 77 1012.9
20260504042610 15 219 3.2 3.2 0.00 0.00 0.00 77 1012.9
20260504042107 15 225 1.6 3.2 0.00 0.00 0.00 76 1013.0
20260504041602 15 270 0.0 3.2 0.00 0.00 0.00 76 1013.1
20260504041059 15 245 0.0 1.6 0.00 0.00 0.00 76 1013.0
20260504040556 15 262 0.0 1.6 0.00 0.00 0.00 76 1013.1
20260504040053 15 260 0.0 1.6 0.00 0.00 0.00 76 1013.0
20260504035549 15 265 0.0 1.6 0.00 0.00 0.00 75 1013.1
20260504035046 15 232 1.6 3.2 0.00 0.00 0.00 74 1013.1
20260504034544 15 234 1.6 3.2 0.00 0.00 0.00 74 1013.1
20260504034040 15 266 1.6 1.6 0.00 0.00 0.00 75 1013.1
20260504033538 15 271 0.0 3.2 0.00 0.00 0.00 74 1013.1
20260504033035 16 248 1.6 1.6 0.00 0.00 0.00 74 1013.1
20260504032532 16 233 1.6 4.8 0.00 0.00 0.00 72 1013.1
20260504032029 16 232 1.6 3.2 0.00 0.00 0.00 73 1013.2
20260504031526 16 265 0.0 1.6 0.00 0.00 0.00 73 1013.3
20260504031022 16 242 1.6 1.6 0.00 0.00 0.00 72 1013.2
20260504030520 16 273 1.6 3.2 0.00 0.00 0.00 72 1013.1
20260504030016 16 227 1.6 3.2 0.00 0.00 0.00 71 1013.2
20260504025513 16 264 1.6 3.2 0.00 0.00 0.00 72 1013.3
20260504025009 16 252 1.6 1.6 0.00 0.00 0.00 71 1013.2
20260504024507 16 244 1.6 4.8 0.00 0.00 0.00 70 1013.1
20260504024004 16 40 1.6 3.2 0.00 0.00 0.00 71 1013.2
20260504023500 16 258 0.0 3.2 0.00 0.00 0.00 71 1013.1
20260504022956 16 272 0.0 1.6 0.00 0.00 0.00 71 1013.3
20260504022452 16 221 1.6 3.2 0.00 0.00 0.00 70 1013.1
20260504021949 16 249 1.6 1.6 0.00 0.00 0.00 69 1013.0
20260504021446 16 273 0.0 3.2 0.00 0.00 0.00 70 1013.2
20260504020943 16 269 0.0 1.6 0.00 0.00 0.00 69 1013.1
20260504020440 16 253 0.0 1.6 0.00 0.00 0.00 67 1013.1
20260504015937 16 257 1.6 3.2 0.00 0.00 0.00 68 1013.0
20260504015433 16 297 1.6 3.2 0.00 0.00 0.00 67 1012.8
20260504014929 16 263 1.6 1.6 0.00 0.00 0.00 67 1012.8
20260504014425 17 268 1.6 1.6 0.00 0.00 0.00 66 1012.8
20260504013922 17 258 1.6 4.8 0.00 0.00 0.00 65 1012.8
20260504013421 17 255 1.6 1.6 0.00 0.00 0.00 67 1013.0
20260504012916 17 220 3.2 3.2 0.00 0.00 0.00 65 1012.6
20260504012414 17 234 1.6 3.2 0.00 0.00 0.00 65 1012.6
20260504011911 17 254 0.0 1.6 0.00 0.00 0.00 64 1012.6
20260504011408 17 251 0.0 1.6 0.00 0.00 0.00 65 1012.7
20260504010904 17 274 0.0 1.6 0.00 0.00 0.00 64 1012.7
20260504010400 17 263 0.0 1.6 0.00 0.00 0.00 62 1012.7
20260504005856 18 262 0.0 1.6 0.00 0.00 0.00 63 1012.6
20260504005353 18 271 0.0 1.6 0.00 0.00 0.00 61 1012.6
20260504004845 18 284 0.0 3.2 0.00 0.00 0.00 59 1012.7
20260504004343 18 280 0.0 3.2 0.00 0.00 0.00 58 1012.7
20260504003839 18 270 1.6 3.2 0.00 0.00 0.00 59 1012.6
20260504003336 19 252 1.6 1.6 0.00 0.00 0.00 58 1012.8
20260504002832 19 264 0.0 3.2 0.00 0.00 0.00 56 1012.8
20260504002329 19 219 1.6 3.2 0.00 0.00 0.00 55 1012.9
20260504001827 20 256 4.8 8.0 0.00 0.00 0.00 53 1012.8
20260504001324 20 225 1.6 3.2 0.00 0.00 0.00 55 1012.8
20260504000821 20 273 0.0 1.6 0.00 0.00 0.00 52 1012.8
20260504000318 20 284 0.0 1.6 0.00 0.00 0.00 52 1012.9
20260503235815 20 280 1.6 3.2 0.00 0.00 0.00 51 1013.1
20260503235313 20 220 3.2 4.8 0.00 0.00 0.00 50 1012.9